N3UJJ-1 Weather Reports


time (UTC)temp
C
wind
direction
speed
KPH
gust
KPH
rain 1hr
cm
rain 24hr
cm
rain mn
cm
humidity
%
barometer
mb
20260906104636 16 175 0.0 0.0 0.00 0.00 0.00 96 1012.9
20260906104414 16 175 0.0 0.0 0.00 0.00 0.00 96 1012.9
20260906103136 16 175 0.0 0.0 0.00 0.00 0.00 96 1012.6
20260906101636 16 175 0.0 0.0 0.00 0.00 0.00 96 1012.4
20260906100136 16 175 0.0 0.0 0.00 0.00 0.00 96 1012.3
20260906094635 16 175 0.0 0.0 0.00 0.00 0.00 96 1012.2
20260906094420 16 175 0.0 0.0 0.00 0.00 0.00 96 1012.2
20260906093135 16 175 0.0 0.0 0.00 0.00 0.00 96 1012.0
20260906091635 16 175 0.0 0.0 0.00 0.00 0.00 96 1011.9
20260906090135 16 175 0.0 0.0 0.00 0.00 0.00 96 1011.7
20260906084635 16 175 0.0 0.0 0.00 0.00 0.00 96 1011.7
20260906084446 16 175 0.0 0.0 0.00 0.00 0.00 96 1011.8
20260906083135 17 175 0.0 0.0 0.00 0.00 0.00 96 1011.6
20260906081634 17 175 0.0 0.0 0.00 0.00 0.00 96 1011.6
20260906080134 17 175 0.0 0.0 0.00 0.00 0.00 96 1011.5
20260906074634 17 175 0.0 0.0 0.00 0.00 0.00 96 1011.4
20260906074442 17 175 0.0 0.0 0.00 0.00 0.00 96 1011.4
20260906073134 17 175 0.0 0.0 0.00 0.00 0.00 96 1011.3
20260906071634 17 175 0.0 0.0 0.00 0.00 0.00 96 1011.2
20260906070134 17 175 0.0 0.0 0.00 0.00 0.00 96 1011.3
20260906064634 17 175 0.0 0.0 0.00 0.00 0.00 96 1011.3
20260906064415 17 175 0.0 0.0 0.00 0.00 0.00 96 1011.5
20260906063133 17 175 0.0 0.0 0.00 0.00 0.00 96 1011.4
20260906061633 18 175 0.0 0.0 0.00 0.00 0.00 96 1011.4
20260906060133 18 175 0.0 0.0 0.00 0.00 0.00 96 1011.4
20260906054633 18 175 0.0 0.0 0.00 0.00 0.00 96 1011.2
20260906054423 18 175 0.0 0.0 0.00 0.00 0.00 96 1011.3
20260906053133 18 175 0.0 0.0 0.00 0.00 0.00 96 1011.4
20260906051633 18 175 0.0 0.0 0.00 0.00 0.00 96 1011.5
20260906050132 18 175 0.0 0.0 0.00 0.00 0.00 96 1011.6
20260906044632 18 175 0.0 0.0 0.00 0.00 0.00 96 1011.6
20260906044424 18 175 0.0 0.0 0.00 0.00 0.00 96 1011.8
20260906043132 19 175 0.0 0.0 0.00 0.00 0.00 96 1011.8
20260906041632 19 175 0.0 0.0 0.00 0.00 0.00 96 1011.7
20260906040132 19 175 0.0 0.0 0.00 0.00 0.00 96 1011.6
20260906034632 19 175 0.0 0.0 0.00 0.00 0.00 96 1011.8
20260906034416 19 175 0.0 0.0 0.00 0.00 0.00 96 1011.8
20260906033132 20 175 0.0 0.0 0.00 0.00 0.00 96 1011.8
20260906031631 20 175 0.0 0.0 0.00 0.00 0.00 96 1011.7
20260906030131 20 175 0.0 0.0 0.00 0.00 0.00 96 1011.8
20260906024631 20 175 0.0 0.0 0.00 0.00 0.00 96 1011.7
20260906024442 20 175 0.0 0.0 0.00 0.00 0.00 96 1011.8
20260906023131 20 175 0.0 0.0 0.00 0.00 0.00 96 1011.8
20260906021631 21 175 0.0 0.0 0.00 0.00 0.00 96 1011.6
20260906020131 21 175 0.0 0.0 0.00 0.00 0.00 96 1011.6
20260906014630 21 175 0.0 0.0 0.00 0.00 0.00 96 1011.5
20260906014419 21 175 0.0 0.0 0.00 0.00 0.00 96 1011.6
20260906013130 21 175 0.0 0.0 0.00 0.00 0.00 95 1011.2
20260906011630 21 175 0.0 0.0 0.00 0.00 0.00 95 1011.1
20260906010130 21 175 0.0 0.0 0.00 0.00 0.00 94 1011.0
20260906004630 22 175 0.0 0.0 0.00 0.00 0.00 94 1010.8
20260906004416 22 175 0.0 0.0 0.00 0.00 0.00 94 1010.8
20260906003129 22 175 0.0 0.0 0.00 0.00 0.00 93 1010.8
20260906001629 22 175 0.0 0.0 0.00 0.00 0.00 92 1010.6
20260906000129 23 175 0.0 0.0 0.00 0.00 0.00 90 1010.5
20260905234629 23 175 0.0 0.0 0.00 0.00 0.00 89 1010.4
20260905234421 23 175 0.0 0.0 0.00 0.00 0.00 89 1010.5
20260905233129 23 175 0.0 0.0 0.00 0.00 0.00 88 1010.3
20260905231629 24 175 0.0 0.0 0.00 0.00 0.00 86 1010.2
20260905230128 25 175 0.0 0.0 0.00 0.00 0.00 82 1010.3
20260905224628 24 175 0.0 0.0 0.00 0.00 0.00 84 1010.3
20260905224421 24 175 0.0 0.0 0.00 0.00 0.00 84 1010.3
20260905223128 24 175 0.0 6.4 0.00 0.00 0.00 84 1010.1
20260905221628 25 175 0.0 6.4 0.00 0.00 0.00 83 1009.8
20260905220128 25 175 0.0 9.7 0.00 0.00 0.00 82 1009.9
20260905214628 25 175 0.0 9.7 0.00 0.00 0.00 81 1009.8
20260905214444 25 175 0.0 0.0 0.00 0.00 0.00 81 1009.8
20260905213128 25 163 0.0 11.3 0.00 0.00 0.00 81 1009.6
20260905211627 26 134 6.4 11.3 0.00 0.00 0.00 76 1009.5
20260905210127 26 165 3.2 12.9 0.00 0.00 0.00 77 1009.4
20260905204627 26 174 0.0 12.9 0.00 0.00 0.00 77 1009.3
20260905204444 26 148 0.0 8.0 0.00 0.00 0.00 78 1009.5
20260905203127 26 187 0.0 14.5 0.00 0.00 0.00 78 1009.4
20260905201627 26 51 0.0 14.5 0.00 0.00 0.00 76 1009.5
20260905200127 26 154 6.4 14.5 0.00 0.00 0.00 76 1009.5
20260905194627 26 304 9.7 14.5 0.00 0.00 0.00 74 1009.4
20260905194420 26 316 3.2 11.3 0.00 0.00 0.00 75 1009.5
20260905193127 26 288 8.0 14.5 0.00 0.00 0.00 76 1009.6
20260905191626 26 42 4.8 14.5 0.00 0.00 0.00 77 1009.6
20260905190126 26 340 8.0 14.5 0.00 0.00 0.00 80 1009.6
20260905184626 26 63 1.6 14.5 0.00 0.00 0.00 80 1010.0
20260905184504 26 43 6.4 14.5 0.00 0.00 0.00 80 1010.2
20260905183126 26 344 3.2 11.3 0.00 0.00 0.00 82 1010.1
20260905181626 25 128 0.0 11.3 0.00 0.00 0.00 82 1010.5
20260905180125 26 101 3.2 11.3 0.00 0.00 0.00 80 1010.7
20260905174625 26 157 9.7 11.3 0.00 0.00 0.00 79 1010.7
20260905174429 26 88 3.2 9.7 0.00 0.00 0.00 78 1010.8
20260905173125 26 161 1.6 9.7 0.00 0.00 0.00 78 1010.9
20260905171625 27 130 0.0 9.7 0.00 0.00 0.00 78 1010.9
20260905170125 26 86 0.0 9.7 0.00 0.00 0.00 78 1011.1
20260905164625 26 37 0.0 9.7 0.00 0.00 0.00 77 1011.0
20260905164427 26 171 3.2 9.7 0.00 0.00 0.00 78 1011.1
20260905163124 26 187 0.0 9.7 0.00 0.00 0.00 78 1011.0
20260905161624 26 49 6.4 9.7 0.00 0.00 0.00 77 1011.1
20260905160124 26 343 3.2 11.3 0.00 0.00 0.00 79 1011.2
20260905154624 26 30 6.4 11.3 0.00 0.00 0.00 78 1011.4
20260905154424 26 306 3.2 11.3 0.00 0.00 0.00 78 1011.4
20260905153124 26 59 3.2 12.9 0.00 0.00 0.00 81 1011.5
20260905151624 26 355 3.2 12.9 0.00 0.00 0.00 81 1011.4
20260905150123 26 38 8.0 14.5 0.00 0.00 0.00 80 1011.5
20260905144623 26 345 3.2 14.5 0.00 0.00 0.00 80 1011.5
20260905144422 26 47 6.4 12.9 0.00 0.00 0.00 80 1011.7
20260905143123 26 33 9.7 14.5 0.00 0.00 0.00 82 1011.2
20260905141623 25 49 8.0 14.5 0.00 0.00 0.00 87 1010.9
20260905140123 25 66 0.0 14.5 0.00 0.00 0.00 89 1010.8
20260905134623 25 71 0.0 14.5 0.00 0.00 0.00 90 1010.7
20260905134416 25 20 3.2 14.5 0.00 0.00 0.00 90 1010.9
20260905133123 25 355 8.0 17.7 0.00 0.00 0.00 89 1010.9
20260905131622 25 5 9.7 17.7 0.00 0.00 0.00 91 1010.8
20260905130122 24 27 6.4 6.4 0.00 0.00 0.00 94 1010.8
20260905124622 23 15 6.4 6.4 0.00 0.00 0.00 97 1010.7
20260905124444 23 338 3.2 11.3 0.00 0.00 0.00 97 1010.8
20260905123122 23 278 0.0 0.0 0.00 0.00 0.00 97 1010.7
20260905121622 22 207 0.0 0.0 0.00 0.00 0.00 97 1010.7
20260905120122 22 207 0.0 0.0 0.00 0.00 0.00 97 1010.7
20260905114622 21 207 0.0 0.0 0.00 0.00 0.00 97 1010.5
20260905114415 21 207 0.0 0.0 0.00 0.00 0.00 97 1010.7
20260905113121 21 207 0.0 0.0 0.00 0.00 0.00 97 1010.5
20260905111621 21 207 0.0 0.0 0.00 0.00 0.00 97 1010.2
20260905110121 21 207 0.0 0.0 0.00 0.00 0.00 97 1010.0